SWISSCUBE (35932 NORAD) Tracking and Keplerian Element Data

This shows tracking and keplerian element data for the satellite.

Feedback or suggestion? Click here.




ElementValue
Catalog35932
NameSWISSCUBE
Epoch Orbit81632
Epoch Day34.62163186
Epoch Year2025
RAAN288.4462
Inclination98.4446
Eccentricity0.0006502
Argument of Perigee332.9186
Mean Anonmoly27.1673
Mean Motion14.60724811
Decay Rate3.034E-05
L11 35932U 09051B 25034.62163186 .00003034 00000+0 63209-3 0 9996
L22 35932 98.4446 288.4462 0006502 332.9186 27.1673 14.60724811816328



Live tracking and technical data element details for SWISSCUBE (NORAD 35932). SWISSCUBE can be tracked NOW for your location showing map with azimuth and elevation plus other details from your city location.







IsCatalogInMostPopularTable: catalog: 35932, numindb: 25537
Update: records affected: 1



GetName: 35932 SWISSCUBE

Hit Count: updated at: Fri, 14 Feb 2025 15:21:46 GMT